Flag for U.S.A. Weather past 2 weeks in Costa Mesa, California, U.S.A.

Now
70 °F

Passing clouds.


Feels Like: 68 °F
Forecast: 69 / 80 °F
Wind: 3 mph from Southwest

Location: John Wayne Airport-Orange County Airport

Current Time: Jul 31, 2015 at 11:51:42 PM

Latest Report: Jul 31, 2015 at 10:53 PM


Visibility: 9 mi

Pressure: 29.96 "Hg

Humidity: 87%

Dew point: 66 °F

Location of Costa MesaLocation

Historic Weather in Costa Mesa — Graph

°F

Costa Mesa temperature yesterday

Maximum temperature yesterday: 81 °F (at 1:53 PM)
Minimum temperature yesterday: 70 °F (at 12:53 AM)
Average temperature yesterday: 74 °F

Past Weeks' High & Low Weather Summary

 TemperatureHumidityPressure
High88 °F (Jul 19, 11:53 AM)96% (Jul 19, 5:53 AM)30.07 "Hg (Jul 19, 5:53 AM)
Low66 °F (Jul 16, 10:53 PM)37% (Jul 18, 10:53 AM)29.79 "Hg (Jul 17, 4:53 PM)
Average73 °F75%29.94 "Hg
* Reported Jul 16 9:53 PM — Jul 31 9:53 PM, Costa Mesa, Weather by CustomWeather, © 2015

Note: Actual official high and low records may vary slightly from our data, if they occured in-between our weather recording intervals... More about our weather records

Advertising

Costa Mesa weather history for previous 24 hours

 ConditionsComfort  
Time TempWeatherWind HumidityBarometerVisibility
9:53 PM
Fri, Jul 31
71 °FPassing clouds.No wind81%29.96 "Hg9 mi
8:53 PM72 °FPassing clouds.5 mph78%29.96 "Hg10 mi
7:53 PM74 °FPartly sunny.6 mph76%29.94 "Hg10 mi
6:53 PM75 °FPartly sunny.7 mph71%29.92 "Hg10 mi
5:53 PM77 °FPartly sunny.9 mph66%29.92 "Hg10 mi
4:53 PM78 °FPartly sunny.9 mph66%29.94 "Hg10 mi
3:53 PM79 °FPartly sunny.9 mph65%29.95 "Hg10 mi
2:53 PM80 °FPartly sunny.8 mph62%29.96 "Hg10 mi
1:53 PM79 °FPartly sunny.7 mph62%29.98 "Hg10 mi
12:53 PM80 °FBroken clouds.12 mph60%30.00 "Hg9 mi
11:53 AM78 °FBroken clouds.5 mph66%30.01 "Hg10 mi
10:53 AM76 °FPartly sunny.No wind72%30.03 "Hg8 mi
9:53 AM72 °FOvercast.No wind81%30.03 "Hg7 mi
8:53 AM70 °FOvercast.5 mph84%30.03 "Hg7 mi
7:53 AM69 °FOvercast.9 mph87%30.03 "Hg7 mi
6:53 AM70 °FOvercast.6 mph87%30.02 "Hg7 mi
5:53 AM70 °FOvercast.5 mph87%30.00 "Hg7 mi
4:53 AM71 °FOvercast.No wind84%29.99 "Hg10 mi
3:53 AM70 °FOvercast.No wind87%29.99 "Hg9 mi
2:53 AM71 °FOvercast.3 mph84%30.00 "Hg9 mi
1:53 AM70 °FOvercast.5 mph84%30.01 "Hg10 mi
12:53 AM70 °FMostly cloudy.5 mph84%30.01 "Hg10 mi
11:53 PM
Thu, Jul 30
70 °FPassing clouds.5 mph84%30.03 "Hg10 mi
Weather by CustomWeather, © 2015

See weather overviewHow to use our weather pages